Regional Weather Roundup
Issued by NWS

Home | Current Version | Previous Version | Text Only | Print | Product List | Glossary On
Versions: 1 2 3 4 5 6 7 8 9 10 11 12 13 14 15 16 17 18 19 20 21 22 23 24 25 26 27 28 29 30 31 32 33 34 35 36 37 38 39 40 41 42 43 44 45 46 47 48 49 50
000
ASUS46 KLOX 260712
RWRCA

SOUTHERN CALIFORNIA WEATHER ROUNDUP
NATIONAL WEATHER SERVICE OXNARD CALIFORNIA
1200 AM PDT SAT JUL 26 2014

NOTE: "FAIR" INDICATES FEW OR NO CLOUDS BELOW 12,000 FEET WITH NO
SIGNIFICANT WEATHER AND/OR OBSTRUCTIONS TO VISIBILITY.

  -  STATIONS PRECEEDED BY AN ASTERISK (*) ARE NOT NWS OR FAA
     STATIONS AND ARE NOT SUBJECT TO NWS AND FAA QUALITY CONTROL.

CAZ041-042-087-260800-
LA AND ORANGE COUNTY COASTAL AREAS


CITY           SKY/WX    TMP DP  RH WIND       PRES   REMARKS
L.A. DOWNTOWN  PTCLDY    71  63  75 CALM      29.92R
L.A. AIRPORT   MOCLDY    69  63  81 W7        29.93R
LONG BEACH     PTCLDY    70  65  84 CALM      29.92R

CITY           SKY/WX    TMP DP  RH WIND       PRES   REMARKS
AVALON           N/A     68 N/A N/A MISG        N/A
FULLERTON      CLEAR     72  63  73 CALM      29.91S
*GETTY CENTER    N/A     68  59  73 NE3         N/A
HAWTHORNE      PTCLDY    69  64  84 SW5       29.93R
*LOS ALAMITOS  FAIR      68  65  90 S2        29.93R
*REDONDO BEACH   N/A     67  64  87 W2        29.93R
SANTA ANA      CLEAR     73  64  73 SW3       29.92S
STA MONICA APT CLOUDY    70  65  84 SW3       29.93R HAZE
*UCLA            N/A     68  63  83 CALM      29.91R

$$

CAZ547-548-048-260800-
LA COUNTY VALLEYS AND INLAND EMPIRE


CITY           SKY/WX    TMP DP  RH WIND       PRES   REMARKS
BURBANK        PTCLDY    74  59  59 SE6       29.94R
VAN NUYS       PTCLDY    74  60  61 CALM      29.93S

CITY           SKY/WX    TMP DP  RH WIND       PRES   REMARKS
CORONA AIRPORT SUNNY     71  64  78 W5        29.94R
CHINO          CLEAR     70  63  78 CALM      29.94S
*CLAREMONT       N/A     70  52  53 N6          N/A
MARCH AFB      PTCLDY    75  61  60 CALM      29.97R
*NORTHRIDGE      N/A     72  57  60 E1          N/A
ONTARIO        PTCLDY    76  59  55 CALM      29.94R
*PASADENA        N/A     73  64  73 E2          N/A
RIVERSIDE      CLEAR     75  62  64 W3        29.94S
SAN BERNARDINO NOT AVBL
*SAN GABRIEL     N/A     73  60  63 SW6       29.89R
*WHITEMAN AP   NOT AVBL
*WOODLAND HILL   N/A     72  57  60 E2          N/A

$$

CAZ054-055-260800-
LA AND SAN BERNARDINO COUNTY MOUNTAINS


CITY           SKY/WX    TMP DP  RH WIND       PRES   REMARKS
*ACTON           N/A     75  55  49 SE6         N/A
*BIG BEAR AIRP SUNNY     55  25  30 CALM      30.32S
*BIG PINES       N/A     68  42  38 CALM        N/A
*CHILAO          N/A     74  38  26 SE2         N/A
MT WILSON NWS    N/A     72  30  21 MISG        N/A
SANDBERG       PTCLDY    72  44  36 SW6       30.15S
*WARM SPRINGS    N/A     72  42  34 W9          N/A

$$

CAZ028-029-059-060-099-260800-
ANTELOPE VALLEY AND SURROUNDING AREAS


CITY           SKY/WX    TMP DP  RH WIND       PRES   REMARKS
LANCASTER      PTCLDY    80  46  30 SW16      29.98R
PALMDALE       PTCLDY    80  31  16 VRB3      29.99R

CITY           SKY/WX    TMP DP  RH WIND       PRES   REMARKS
29 PALMS       PTCLDY    88  39  17 SW7       29.98R
BARSTOW/DAGGET PTCLDY    86  40  19 W12       29.92R
BISHOP         PTCLDY    73  25  16 N7        30.03R
CHINA LAKE     PTCLDY    87  42  20 S14       29.88S
EDWARDS AFB    PTCLDY    81  46  29 SW13      29.94S
MOJAVE         FAIR      82  45  26 SW15      29.99R
NEEDLES        CLOUDY    95  61  32 SE28G36   29.87R HX  95
VICTORVILLE    CLEAR     77  43  29 S5        30.01R

$$

CAZ039-040-260800-
VENTURA AND SANTA BARBARA COUNTY COAST


CITY           SKY/WX    TMP DP  RH WIND       PRES   REMARKS
CAMARILLO      CLOUDY    65  61  87 CALM      29.93R
NWS OXNARD       N/A     64  61  89 CALM      29.92S
OXNARD AIRPORT CLOUDY    63  61  93 W3        29.93S FOG
*POINT MUGU    CLOUDY    67  62  84 NW3       29.93S
SBA APT/GOLETA CLOUDY    64  61  90 S3        29.93R
*SANTA BARBARA   N/A     65  60  82 CALM      30.00S
*VENTURA         N/A     65  62  89 CALM      29.96S

$$

CAZ044-045-260800-
VENTURA COUNTY VALLEYS


CITY           SKY/WX    TMP DP  RH WIND       PRES   REMARKS
*SIMI VALLEY     N/A     67  62  82 CALM      29.87R
*OJAI            N/A     65  58  80 CALM      29.86R
*FILLMORE        N/A     65  60  82 CALM      29.83S

$$

CAZ053-260800-
VENTURA COUNTY MOUNTAINS


CITY           SKY/WX    TMP DP  RH WIND       PRES   REMARKS
*LOCKWOOD VLY    N/A     59  36  41 MISG        N/A
*ROSE VALLEY     N/A     61  45  55 MISG        N/A

$$

CAZ034-035-036-260800-
CENTRAL COAST AND SANTA YNEZ VALLEY


CITY           SKY/WX    TMP DP  RH WIND       PRES   REMARKS
SAN LUIS OBISP CLOUDY    59  58  96 CALM      29.93F
SANTA MARIA    CLOUDY    62  58  86 NW3       29.93F HAZE

CITY           SKY/WX    TMP DP  RH WIND       PRES   REMARKS
*CAL POLY SLO    N/A     59  57  94 CALM        N/A
*CAMBRIA         N/A     57  56  97 S2        29.83F
*LOMPOC          N/A     61  55  82 MISG      29.94S
*PISMO BEACH     N/A     60  59  96 W1        29.93F

$$

CAZ037-038-051-260800-
SAN LUIS OBISPO COUNTY INTERIOR AND CUYAMA VALLEY


CITY           SKY/WX    TMP DP  RH WIND       PRES   REMARKS
*CUYAMA          N/A     73  52  47 S1        29.84S
PASO ROBLES    CLEAR     70  53  54 W5        29.92S

$$

CAZ032-033-061-260800-
SOUTHERN DESERTS


CITY           SKY/WX    TMP DP  RH WIND       PRES   REMARKS
BLYTHE         MOCLDY    98  60  28 S9        29.82R HX  98
IMPERIAL       MOCLDY    95  62  33 S12       29.76F HX  96
PALM SPRINGS   PTCLDY    89  60  37 N6        29.83R
THERMAL        PTCLDY    92  57  30 E8        29.77R HX  90

$$

ELSEWHERE ACROSS THE WESTERN UNITED STATES AND MEXICO


CITY           SKY/WX    TMP DP  RH WIND       PRES   REMARKS
DENVER, CO     PTCLDY    68  54  60 SW13      30.08F
GRAND CANYON,  CLOUDY    65  48  54 S3        30.35R
HONOLULU, HI   PTCLDY    79  66  65 NE10G20   29.97R
KAHULUI, MAUI  PTCLDY    79  64  61 E9        29.97R
LAKE TAHOE, CA CLEAR     54  37  52 CALM      30.24S
LAS VEGAS, NV  MOCLDY    95  49  20 S13       29.86R HX  92
MAMMOTH LAKES, FAIR      55  28  35 CALM      30.30S
MEXICO CITY, M PTCLDY    61  52  72 W7        30.41S
PHOENIX, AZ    CLOUDY    88  64  44 S12       29.90S
PORTLAND, OR   CLEAR     65  55  70 NW5       30.09S
RENO, NV       PTCLDY    76  35  22 NW9       30.11R
SALT LAKE CITY PTCLDY    77  42  28 SE7       30.01R
SAN DIEGO, CA  MOCLDY    70  64  81 NW5       29.94S
SAN FRANCISCO, CLEAR     64  57  78 W12       29.88S
SAN JOSE, CA   CLEAR     70  51  51 E7        29.88S
SEATTLE, WA    CLEAR     62  51  67 N12       30.12S
TIJUANA, MEX   CLEAR     68  63  83 NW8       29.96

$$

STATION/POSITION TIME  TEMP    WIND        PRES    VSBY  WAVE
                       AIR SEA DIR/SP/G                  HT/PER
                 (UTC) (F)     (DEG/KT/KT) (MB)    (MI)  (FT/S)
POINT ARGUELLO B NOT AVBL
WEST SANTA BARBA 0700   59 63  290/ 12/ 12 1012.6S         6/10
POINT CONCEPTION NOT AVBL
EAST SANTA BARBA 0700   61 65  220/  4/  6 1013.7R
SANTA MONICA BAY 0700   66 68  340/  6/  8 1013.0R         3/15


USA.gov is the U.S. government's official web portal to all federal, state and local government web resources and services.